Terminal Aerodrome Forecast
Issued by NWS State College, PA

Home | Current Version | Previous Version | Text Only | Print | Product List | Glossary On
Versions: 1 2 3 4 5 6 7 8 9 10 11 12 13 14 15 16 17 18 19 20 21 22 23 24 25 26 27 28 29 30 31 32 33 34 35 36 37 38 39 40 41 42 43 44 45 46 47 48 49 50
000
FTUS41 KCTP 020226 AAA
TAFIPT
TAF AMD
KIPT 020226Z 0202/0224 10006KT 3SM -SN BR BKN015 OVC040
     FM020400 10006KT 3/4SM -SN BR OVC009
     FM020800 10006KT 2SM -FZRASN BR OVC012
     FM021300 12006KT 3SM -FZRASN BR OVC008
     FM021600 26015G25KT 6SM -SN OVC018=

USA.gov is the U.S. government's official web portal to all federal, state and local government web resources and services.